AE7VB Weather Reports


time (UTC)temp
C
wind
direction
speed
KPH
gust
KPH
rain 1hr
cm
rain 24hr
cm
rain mn
cm
humidity
%
barometer
mb
20260505011417 22 301 3.2 12.9 0.00 0.00 0.00 36 1012.6
20260505010416 22 316 3.2 12.9 0.00 0.00 0.00 37 1012.6
20260505005415 22 319 1.6 11.3 0.00 0.00 0.00 37 1012.5
20260505004344 22 328 3.2 14.5 0.00 0.00 0.00 35 1012.5
20260505003343 22 324 1.6 14.5 0.00 0.00 0.00 32 1012.5
20260505002310 22 318 3.2 11.3 0.00 0.00 0.00 31 1012.4
20260505001309 22 312 3.2 9.7 0.00 0.00 0.00 35 1012.5
20260505000309 22 321 3.2 11.3 0.00 0.00 0.00 33 1012.5
20260504235308 22 333 1.6 6.4 0.00 0.00 0.00 32 1012.5
20260504234307 22 8 1.6 4.8 0.00 0.00 0.00 32 1012.5
20260504233305 22 13 3.2 6.4 0.00 0.00 0.00 33 1012.6
20260504232304 22 8 3.2 12.9 0.00 0.00 0.00 35 1012.6
20260504231232 22 10 1.6 12.9 0.00 0.00 0.00 35 1012.6
20260504230231 22 22 3.2 6.4 0.00 0.00 0.00 36 1012.7
20260504225128 22 338 3.2 16.1 0.00 0.00 0.00 36 1012.8
20260504224056 23 353 3.2 16.1 0.00 0.00 0.00 35 1013.2
20260504223055 23 311 3.2 9.7 0.00 0.00 0.00 34 1012.9
20260504222054 22 359 1.6 12.9 0.00 0.00 0.00 35 1013.3
20260504221053 22 17 3.2 12.9 0.00 0.00 0.00 34 1013.2
20260504220021 22 357 1.6 6.4 0.00 0.00 0.00 43 1013.5
20260504215019 22 24 3.2 6.4 0.00 0.00 0.00 42 1013.4
20260504214018 22 12 3.2 6.4 0.00 0.00 0.00 40 1013.7
20260504213017 23 326 1.6 6.4 0.00 0.00 0.00 39 1013.8
20260504212016 23 310 3.2 16.1 0.00 0.00 0.00 40 1013.8
20260504211015 22 64 3.2 16.1 0.00 0.00 0.00 43 1013.8
20260504210014 22 17 3.2 4.8 0.00 0.00 0.00 43 1013.8
20260504205013 22 118 3.2 6.4 0.00 0.00 0.00 45 1013.9
20260504204011 23 17 1.6 6.4 0.00 0.00 0.00 42 1014.3
20260504203010 23 33 1.6 4.8 0.00 0.00 0.00 44 1014.3
20260504202009 23 15 1.6 6.4 0.00 0.00 0.00 40 1014.3
20260504201008 22 31 1.6 6.4 0.00 0.00 0.00 41 1014.3
20260504200007 22 7 3.2 6.4 0.00 0.00 0.00 45 1014.3
20260504195006 22 56 1.6 8.0 0.00 0.00 0.00 44 1014.2
20260504194006 22 13 3.2 12.9 0.00 0.00 0.00 42 1014.2
20260504193004 22 310 3.2 12.9 0.00 0.00 0.00 43 1014.2
20260504191932 22 329 1.6 9.7 0.00 0.00 0.00 48 1014.3
20260504190932 22 271 4.8 9.7 0.00 0.00 0.00 44 1014.2
20260504185930 21 70 1.6 6.4 0.00 0.00 0.00 45 1014.4
20260504184930 21 70 1.6 6.4 0.00 0.00 0.00 43 1014.4
20260504183929 21 41 1.6 6.4 0.00 0.00 0.00 45 1014.4
20260504182928 21 18 1.6 6.4 0.00 0.00 0.00 43 1014.4
20260504181927 21 54 1.6 9.7 0.00 0.00 0.00 46 1014.4
20260504180926 21 324 3.2 9.7 0.00 0.00 0.00 46 1014.4
20260504175925 21 19 3.2 6.4 0.00 0.00 0.00 45 1014.7
20260504174925 21 41 1.6 4.8 0.00 0.00 0.00 46 1014.6
20260504173923 20 22 1.6 6.4 0.00 0.00 0.00 45 1014.5
20260504172922 20 11 3.2 6.4 0.00 0.00 0.00 45 1014.5
20260504171921 20 14 3.2 6.4 0.00 0.00 0.00 48 1014.4
20260504170920 19 18 1.6 6.4 0.00 0.00 0.00 47 1014.3
20260504150631 15 286 1.6 3.2 0.00 0.00 0.00 50 1015.6
20260504140523 10 234 3.2 6.4 0.00 0.00 0.00 66 1015.3
20260504130446 7 155 0.0 3.2 0.00 0.00 0.00 69 1014.6
20260504110402 8 157 0.0 3.2 0.00 0.00 0.00 63 1014.9
20260504100120 10 157 1.6 3.2 0.00 0.00 0.00 58 1015.2
20260504090114 10 156 3.2 4.8 0.00 0.00 0.00 58 1015.6
20260504081006 10 159 1.6 3.2 0.00 0.00 0.00 57 1015.8
20260504050741 11 192 0.0 4.8 0.00 0.00 0.00 58 1015.6
20260504045741 11 190 1.6 4.8 0.00 0.00 0.00 58 1015.8
20260504044739 11 190 1.6 6.4 0.00 0.00 0.00 58 1015.7
20260504043738 11 190 1.6 6.4 0.00 0.00 0.00 59 1015.3
20260504042738 11 219 3.2 4.8 0.00 0.00 0.00 60 1015.3
20260504041736 12 223 1.6 6.4 0.00 0.00 0.00 60 1015.3
20260504040704 12 229 3.2 6.4 0.00 0.00 0.00 60 1015.4
20260504035703 13 303 1.6 3.2 0.00 0.00 0.00 59 1015.5
20260504034702 13 303 1.6 3.2 0.00 0.00 0.00 58 1015.6
20260504033700 13 304 1.6 3.2 0.00 0.00 0.00 58 1015.6
20260504032659 15 304 1.6 3.2 0.00 0.00 0.00 56 1015.8
20260504031659 16 321 1.6 3.2 0.00 0.00 0.00 52 1016.1
20260504030657 17 321 1.6 3.2 0.00 0.00 0.00 48 1016.0
20260504025657 18 321 1.6 3.2 0.00 0.00 0.00 43 1016.1
20260504024656 19 321 0.0 1.6 0.00 0.00 0.00 41 1016.1
20260504023655 20 321 0.0 3.2 0.00 0.00 0.00 41 1016.2
20260504022654 20 321 0.0 3.2 0.00 0.00 0.00 39 1016.2
20260504021653 20 321 1.6 3.2 0.00 0.00 0.00 37 1016.0
20260504020621 21 323 0.0 1.6 0.00 0.00 0.00 37 1015.9
20260504015620 21 336 1.6 3.2 0.00 0.00 0.00 37 1015.9
20260504014619 21 345 1.6 8.0 0.00 0.00 0.00 35 1016.1
20260504013618 21 326 3.2 8.0 0.00 0.00 0.00 36 1016.1
20260504012616 22 326 1.6 6.4 0.00 0.00 0.00 34 1015.9